ECMWFFLT1_850_spd_234.txt.gz
Wind_Speed
7 6 6 6 6 5 5 6 5 4 3 4 3 3 4 4 5 5 5 5 5 5 4 4 4 4 4 3 3 3 3 3 3 2 3 4 5 5 5 4 4 4 4 4 5 6 9 12 10 8 8 7 7 8 7 6 5 5 5 4 3 2 2
8 5 5 4 5 5 5 6 6 5 4 4 4 4 4 4 5 5 4 4 4 5 4 4 4 3 3 3 3 3 3 3 2 2 2 4 5 5 5 4 4 4 4 4 4 5 8 11 11 10 9 9 9 10 8 6 5 4 4 5 4 3 2
7 5 5 4 4 4 5 7 6 5 5 4 4 4 4 5 5 5 4 4 4 4 4 4 4 3 3 2 3 3 3 3 3 2 2 4 5 6 6 6 6 6 6 6 6 6 7 9 11 11 10 9 12 13 9 6 5 4 4 5 5 4 3
8 6 7 7 6 6 7 8 7 6 5 5 4 4 5 5 4 4 4 3 3 4 4 3 3 3 3 3 2 2 2 2 2 2 2 3 4 5 6 5 6 7 7 7 7 7 7 8 11 12 11 10 12 13 11 7 5 4 6 6 6 6 5
11 8 9 9 8 9 9 9 9 8 7 6 6 6 6 5 4 4 4 2 1 2 2 2 2 3 3 3 2 1 1 0 0 1 2 3 3 4 5 5 6 6 6 6 6 6 6 7 9 11 13 12 13 14 11 7 4 6 7 7 7 7 6
12 11 11 11 11 11 11 11 11 10 9 9 8 7 7 5 3 4 4 3 2 1 1 1 1 2 2 1 1 1 1 1 2 2 3 3 4 4 4 4 5 6 6 6 6 5 7 7 8 11 13 11 13 15 12 7 5 5 7 7 8 8 8
13 13 14 13 13 13 13 13 13 11 9 9 9 8 8 4 2 3 4 3 2 1 1 1 0 1 1 1 1 1 2 1 2 3 4 4 5 4 4 4 4 5 6 6 6 6 7 8 9 11 14 14 14 14 12 10 6 5 6 6 8 9 9
14 15 14 13 13 13 14 14 14 13 10 9 9 9 8 3 0 2 4 3 2 1 1 2 2 1 1 2 2 1 1 0 1 3 5 6 5 4 4 4 5 5 6 6 7 8 8 9 10 10 13 16 17 14 12 11 8 7 6 4 6 8 9
14 14 14 13 12 12 13 13 13 12 10 9 9 10 8 4 1 1 3 3 2 2 2 2 3 3 2 2 2 2 2 1 1 2 6 8 7 5 5 5 5 4 5 6 8 9 9 10 10 9 9 11 14 16 15 12 9 8 6 4 6 7 7
12 13 13 13 13 12 11 12 12 11 9 8 10 10 7 5 1 1 2 3 3 3 3 3 3 3 3 4 4 4 4 3 3 2 6 9 9 7 6 6 5 4 5 6 7 8 9 9 10 9 8 8 9 12 15 13 11 9 7 5 6 6 5
12 12 12 13 13 12 10 10 10 10 8 7 11 10 7 5 2 1 2 4 5 4 4 4 4 3 4 6 6 6 4 3 3 4 6 8 9 9 8 7 6 4 4 6 7 7 8 8 8 8 8 7 7 7 10 13 13 11 9 7 6 5 4
11 11 12 12 11 10 10 9 9 8 6 9 12 10 7 5 3 1 3 6 6 5 5 5 4 4 5 6 6 6 3 2 5 5 5 6 7 7 8 8 6 5 5 6 8 9 8 7 7 6 6 7 7 6 7 10 15 14 10 7 7 5 3
11 10 11 11 11 11 11 11 10 7 4 10 12 10 8 5 4 3 4 7 7 6 6 5 5 5 6 5 5 5 3 4 5 4 4 4 4 5 6 7 7 7 6 7 9 10 9 8 6 5 4 5 8 7 6 8 14 16 12 9 9 9 7
10 10 10 11 12 13 13 12 11 9 6 11 12 10 9 6 5 5 5 6 6 5 6 6 6 5 5 5 4 3 2 2 3 3 2 2 2 3 5 7 8 8 7 7 7 8 9 8 6 4 4 7 9 8 5 6 12 17 15 10 9 11 10
10 10 11 12 14 14 14 14 13 12 9 11 12 12 9 7 7 8 7 7 7 7 7 7 7 6 4 4 4 3 2 1 1 2 2 2 2 4 4 6 7 8 7 6 5 5 5 6 5 6 8 10 10 9 5 4 9 14 15 12 9 9 9
10 10 12 13 14 15 15 16 16 15 12 11 13 13 9 7 9 9 8 8 8 7 8 8 8 6 4 3 3 3 3 3 2 2 2 3 4 4 4 5 7 8 7 6 4 4 5 5 6 9 11 11 10 9 6 3 4 9 12 13 10 8 8
9 10 12 14 15 15 16 16 16 15 11 11 13 12 9 8 11 10 9 8 8 8 8 8 8 7 5 3 2 2 2 3 3 3 4 4 5 5 5 5 7 8 7 6 4 4 5 7 9 12 13 12 10 9 8 5 4 5 9 12 11 8 7
9 10 12 14 15 16 16 14 13 12 10 10 12 11 9 11 12 11 9 8 8 9 8 7 7 7 6 4 2 0 1 2 3 4 5 5 5 5 5 6 7 8 7 6 5 4 5 7 10 13 13 12 10 9 8 7 5 5 7 9 11 10 8
10 10 12 13 14 15 15 13 12 11 8 9 12 11 11 12 11 10 10 9 9 8 6 5 5 5 5 3 1 1 2 3 5 5 6 7 7 6 6 7 8 8 8 7 7 6 5 6 8 11 12 11 10 9 8 7 6 6 6 8 10 11 9
12 11 11 12 13 13 14 13 12 11 7 8 12 14 13 11 10 10 11 10 8 7 5 4 4 4 4 2 1 2 3 4 5 6 7 7 7 7 7 7 7 8 8 8 9 8 6 6 6 8 9 8 7 7 6 6 5 5 5 6 8 10 10
14 12 12 12 12 12 13 13 11 10 7 8 14 15 14 12 11 11 11 10 8 7 7 6 4 3 3 2 1 3 4 4 4 5 6 7 6 6 6 6 6 7 7 8 10 9 8 7 6 6 6 5 4 2 2 3 2 2 2 3 6 9 10
16 14 13 13 13 13 12 12 10 9 7 9 16 16 13 12 11 11 12 11 10 9 8 7 5 3 2 1 1 3 4 5 4 4 5 5 5 5 5 5 6 7 7 8 9 10 9 8 6 6 6 4 2 0 0 1 1 1 0 1 4 7 9
18 17 15 14 14 13 12 12 11 9 8 10 16 16 13 12 12 13 13 12 11 10 9 8 7 5 3 2 1 1 4 5 5 4 3 3 4 4 4 5 6 7 7 8 8 8 9 9 7 7 6 5 3 2 2 2 2 2 2 1 3 6 7
20 19 16 15 15 14 13 13 12 10 10 11 14 15 14 13 13 12 12 12 11 10 9 9 8 6 5 4 3 1 3 4 5 4 3 2 2 3 4 5 6 7 7 7 8 8 8 8 7 6 6 5 4 2 2 1 1 1 1 1 4 5 6
22 20 18 17 16 16 15 14 13 12 13 14 15 15 14 14 12 10 9 9 10 9 9 9 9 8 7 6 4 3 2 4 5 4 3 3 2 3 4 5 5 6 6 6 7 7 7 7 6 5 4 3 2 1 1 1 2 3 3 3 4 6 6
24 22 20 18 17 17 16 16 15 14 14 15 17 16 15 14 13 10 8 8 8 8 9 9 10 9 8 7 6 4 3 3 4 5 5 4 2 3 4 4 4 3 4 5 5 5 5 5 5 5 4 3 3 3 3 4 4 5 5 4 3 5 6
24 23 21 20 19 19 18 17 17 15 15 17 19 17 16 15 13 12 9 8 9 9 9 9 10 10 10 9 7 6 4 3 2 4 5 4 3 2 3 3 2 2 3 4 4 3 3 4 4 4 4 4 4 5 5 6 6 7 7 6 4 4 6
25 24 23 22 21 20 19 18 18 17 16 17 19 18 17 16 14 12 11 10 10 10 9 9 10 10 11 10 9 7 6 5 4 2 2 3 3 2 2 3 2 2 2 3 3 3 2 2 3 4 4 5 6 6 7 8 8 9 8 8 7 7 8
27 25 25 24 22 21 21 19 18 18 17 17 18 19 18 17 15 13 11 11 11 11 10 10 10 11 11 11 10 9 8 7 7 5 3 3 2 2 2 3 2 2 2 2 2 2 2 2 3 4 4 5 6 7 8 9 9 10 9 9 8 8 8
29 26 26 26 25 23 22 20 19 19 18 18 19 19 19 18 16 13 12 12 12 12 11 11 11 11 12 12 11 11 10 9 9 8 5 4 3 2 2 2 2 1 2 2 2 2 2 1 2 3 4 5 6 7 9 10 10 10 10 10 9 8 8
31 28 27 26 26 24 22 21 20 19 19 19 20 20 19 18 17 15 12 12 13 12 12 12 11 11 12 12 12 12 11 11 10 9 7 5 4 4 4 3 3 3 2 1 2 2 2 1 3 4 4 4 6 7 8 9 9 9 9 9 9 9 8
32 30 28 27 26 25 23 22 21 19 19 19 19 20 21 19 18 16 13 12 13 13 13 13 12 12 12 12 13 12 12 11 10 8 7 6 6 6 6 6 5 4 3 2 1 1 1 2 4 5 4 4 5 6 7 7 8 8 7 8 9 9 8
34 32 29 27 26 25 24 23 22 21 19 19 19 20 22 21 19 18 15 14 14 14 14 14 13 13 13 12 12 12 12 11 9 8 7 6 7 8 8 8 7 6 5 3 1 0 1 1 2 3 4 5 5 5 5 5 5 5 5 6 8 9 9
36 33 30 28 26 26 26 24 23 22 20 20 20 21 23 23 21 20 18 16 15 15 15 15 14 14 14 13 13 13 12 10 9 8 7 6 7 8 9 8 7 7 6 5 3 2 1 1 1 0 3 4 4 3 3 3 3 3 3 4 6 8 9
37 35 32 30 28 28 27 26 25 24 22 21 21 22 23 24 23 22 20 18 16 16 16 16 16 15 15 15 14 14 13 11 10 9 8 6 6 8 9 9 8 7 7 6 5 4 3 2 2 2 2 3 3 3 3 3 2 2 2 3 5 5 6
37 37 35 34 32 31 30 28 27 26 25 24 23 22 24 25 25 24 23 21 19 17 17 17 17 17 16 16 16 15 14 13 11 10 8 6 5 7 9 10 9 9 8 8 7 5 5 4 4 3 3 3 4 4 6 6 4 3 2 3 3 3 4
36 37 38 37 36 34 33 31 29 28 28 27 25 24 24 25 26 26 25 24 22 19 18 18 18 18 18 18 18 17 16 15 13 11 10 8 6 6 7 8 9 9 9 9 8 7 6 5 5 4 4 4 4 5 6 7 6 4 2 2 2 2 3

ECMWFFLT1_850_spd_240.txt.gz
Wind_Speed
11 11 11 12 12 12 12 11 12 12 13 13 12 11 11 10 10 10 10 10 10 10 10 10 10 10 10 10 10 9 8 6 6 7 7 7 7 6 8 8 8 7 6 7 8 8 8 7 6 5 3 2 1 1 3 4 5 6 7 7 7 8 8
11 11 11 11 12 13 13 12 13 14 15 16 14 13 12 12 11 12 12 12 11 10 10 10 11 11 11 11 10 10 9 7 6 6 6 7 7 7 7 8 8 8 7 8 9 10 10 9 9 8 7 4 1 4 4 4 6 7 8 8 7 8 8
9 9 10 11 12 12 12 12 13 14 16 17 17 16 15 14 13 13 13 13 12 11 10 11 11 12 12 12 12 11 10 9 8 6 6 6 7 7 7 8 9 9 7 5 6 9 9 6 7 10 9 5 3 7 6 4 6 7 8 8 7 7 9
8 8 9 10 11 11 11 12 12 14 15 17 17 17 17 16 15 13 12 12 12 11 10 10 11 12 12 12 12 13 12 11 9 8 7 6 7 7 7 8 8 9 8 7 6 8 10 8 7 11 11 7 5 7 9 8 5 7 8 8 8 8 9
8 8 9 9 10 10 11 11 12 13 14 16 16 16 17 17 15 13 12 12 12 10 9 10 11 11 12 11 11 12 12 12 10 9 8 7 7 8 8 8 8 9 9 8 7 7 9 9 8 12 14 11 9 8 8 8 5 6 8 9 12 12 10
10 8 9 9 10 10 10 10 11 13 14 15 16 16 16 16 14 13 12 12 11 9 8 9 10 11 11 11 11 11 12 12 11 10 8 7 7 7 8 8 9 9 8 8 7 8 7 6 8 12 13 10 9 11 8 5 5 6 7 9 12 13 12
11 8 8 9 10 10 9 10 11 13 14 15 16 16 16 15 14 12 11 10 9 8 8 9 10 10 10 10 11 11 12 11 11 11 9 7 6 7 7 7 8 8 8 8 7 7 6 3 7 11 11 10 10 11 5 2 4 5 5 8 11 12 13
11 9 8 9 9 9 9 10 12 13 14 16 16 17 16 14 12 11 10 9 8 8 8 9 10 10 11 11 12 13 13 12 11 10 10 8 6 6 7 7 7 8 8 8 7 6 5 2 5 8 9 10 10 8 3 1 1 2 3 5 7 10 12
12 9 7 8 9 9 10 11 12 13 14 15 16 17 16 13 10 9 9 9 8 8 9 9 10 11 11 12 13 14 14 13 11 10 9 8 7 7 7 7 8 7 7 8 7 6 5 3 4 6 9 9 7 7 8 6 3 2 2 2 4 7 10
12 10 8 8 9 9 10 11 12 12 13 14 14 16 15 10 8 9 9 9 8 7 8 9 11 12 12 13 13 14 14 12 10 8 7 6 7 7 8 8 8 8 7 7 6 5 6 6 4 4 8 10 6 4 7 10 7 6 5 2 3 6 8
12 11 9 8 9 9 9 10 11 11 12 13 14 15 14 9 8 8 9 9 8 7 8 10 11 12 13 13 14 14 12 10 8 7 6 6 6 7 8 9 9 8 8 7 6 4 5 6 5 4 5 8 6 4 4 6 9 9 7 4 3 5 7
13 12 9 9 9 9 9 9 10 11 12 12 13 14 13 10 8 8 9 9 8 8 9 11 12 13 14 14 14 12 10 9 8 7 6 6 6 6 7 8 8 8 8 8 6 4 4 5 5 4 3 4 5 4 5 5 5 9 8 5 4 6 7
14 13 10 9 9 9 9 9 10 11 12 12 13 14 12 11 9 9 9 9 8 9 10 11 12 14 14 13 11 9 8 8 7 6 6 5 5 6 6 7 7 7 8 8 6 4 4 4 5 5 4 3 4 5 5 6 4 8 10 6 5 7 7
14 14 11 9 9 9 9 9 10 10 11 12 13 13 12 10 10 10 10 10 9 9 10 12 13 14 14 12 9 8 8 7 6 5 5 5 5 5 5 5 5 6 7 7 6 5 4 5 6 6 7 5 4 6 5 5 6 7 10 8 7 8 8
16 15 12 10 9 9 9 9 10 10 11 12 13 14 12 10 10 10 11 11 10 10 11 13 14 15 14 11 8 8 8 7 6 6 5 5 5 4 5 5 5 6 7 7 6 5 5 5 5 7 8 7 6 6 5 4 6 7 9 11 10 9 8
17 15 13 10 9 9 8 9 10 10 11 12 14 14 12 10 10 11 11 11 11 10 11 13 15 15 13 11 9 8 8 8 7 6 6 6 5 4 4 4 4 5 6 6 6 5 5 4 3 4 6 6 5 5 5 3 4 5 8 10 11 10 8
18 16 14 11 9 9 8 9 10 10 11 13 14 14 12 9 9 10 11 12 11 10 11 13 15 15 13 10 9 8 8 8 7 6 6 6 5 5 5 5 4 5 6 6 6 5 4 2 1 1 2 3 3 4 4 2 3 3 5 8 10 10 8
18 17 14 11 10 10 9 8 10 10 11 13 14 14 11 9 9 10 11 11 10 10 10 12 15 15 12 10 8 7 6 6 5 5 4 5 5 4 5 5 5 5 5 5 5 5 5 4 4 3 3 3 3 3 3 2 2 3 3 6 8 9 8
17 16 15 12 11 10 9 9 10 10 11 12 13 12 10 9 9 10 10 10 10 9 9 12 14 14 11 9 7 6 5 4 4 5 4 4 3 3 4 4 4 4 4 3 4 5 5 5 4 3 2 1 2 3 3 3 3 3 3 5 7 8 8
16 16 15 13 11 11 10 10 10 11 11 12 12 11 10 8 8 9 9 9 8 8 9 11 14 14 11 8 6 5 4 4 5 5 5 4 4 3 3 3 3 3 3 2 3 4 4 4 2 1 1 2 2 3 3 3 3 3 3 4 6 7 9
16 15 16 14 12 12 11 10 11 11 11 11 10 10 9 8 8 8 8 8 7 7 9 11 13 13 10 7 6 5 4 4 4 5 5 5 4 4 3 3 3 3 2 1 1 2 3 3 2 0 2 2 1 2 3 3 3 3 3 4 6 7 9
16 16 17 16 14 13 12 11 11 12 12 10 9 9 9 8 8 8 8 7 7 7 8 11 12 12 9 7 6 5 4 4 4 4 4 5 5 5 4 3 3 3 2 1 1 1 2 2 2 1 0 1 0 2 2 3 3 3 4 5 6 7 9
17 17 17 17 16 14 14 12 12 13 13 11 9 8 8 8 7 7 8 8 7 7 8 10 11 11 9 6 5 5 4 4 3 4 4 5 5 5 5 5 4 3 2 1 1 1 2 2 1 1 1 1 2 3 3 4 4 5 5 6 6 7 8
19 18 17 18 17 16 15 14 13 14 14 12 9 8 7 6 6 6 7 7 6 7 8 9 10 9 8 6 5 4 4 3 3 4 4 5 5 5 6 6 5 4 3 2 0 1 1 2 2 2 3 3 4 5 5 6 6 6 6 6 7 7 8
19 17 17 19 19 18 16 15 15 15 15 13 10 9 7 6 5 5 6 6 5 6 7 8 8 8 7 6 5 4 4 3 3 3 3 4 4 4 4 5 5 5 4 3 2 1 1 2 2 3 4 5 5 6 5 5 5 5 5 5 5 7 8
18 17 17 18 19 19 19 17 16 16 15 14 12 10 8 7 6 6 6 5 5 5 6 7 7 7 7 6 5 4 3 3 2 2 2 2 2 2 2 3 4 4 3 3 3 2 2 2 2 3 4 4 4 4 3 3 3 4 4 4 3 5 7
18 17 17 18 19 20 20 19 18 17 16 15 14 12 10 8 7 6 6 6 5 6 6 6 7 7 7 7 6 5 3 2 2 2 1 0 0 0 1 1 2 3 2 2 2 2 2 1 1 2 2 2 2 2 2 2 2 3 3 4 4 4 5
20 20 19 19 20 20 20 20 19 18 17 16 15 14 12 10 8 7 8 7 6 6 6 7 7 7 7 8 7 6 5 3 1 1 1 1 2 2 2 1 1 1 2 2 2 2 2 2 2 2 2 2 1 0 0 1 2 2 3 3 3 3 4
21 22 22 22 22 21 21 21 20 19 18 17 16 16 15 13 10 9 9 9 8 7 7 7 8 7 8 8 8 8 6 4 3 1 0 1 2 3 3 2 1 0 1 2 2 2 2 3 4 5 4 3 2 2 2 2 2 3 3 3 3 2 2
21 23 24 25 24 23 22 20 20 19 18 17 17 17 16 14 12 10 10 10 9 8 8 8 8 8 8 9 9 9 8 6 5 2 1 2 3 3 3 3 2 1 1 2 2 2 2 3 5 5 4 3 3 3 3 3 3 3 3 2 2 2 2
20 23 25 25 26 27 25 23 22 20 18 17 17 17 16 15 14 12 11 11 10 10 9 9 9 9 9 9 9 9 9 8 7 5 3 3 3 4 4 4 3 2 1 1 2 1 1 3 5 5 4 4 4 4 4 4 4 3 3 2 1 1 1
18 21 23 25 28 28 26 25 23 20 19 19 18 18 18 17 16 15 13 12 12 11 11 11 11 11 10 10 10 10 10 9 8 7 5 4 4 5 5 5 5 4 3 1 1 1 1 3 4 4 4 4 4 4 5 5 4 3 3 2 2 1 1
16 18 20 22 26 26 25 24 22 18 17 17 17 19 20 19 19 17 14 14 14 13 13 13 12 11 11 11 11 11 11 10 9 8 6 5 5 5 6 6 6 5 4 3 2 1 1 1 3 4 4 4 4 4 4 3 3 2 2 2 2 2 1
15 16 17 19 23 24 25 25 24 21 20 19 18 20 20 20 20 19 16 15 15 14 14 14 14 13 12 12 12 12 12 10 9 8 7 7 6 6 6 7 7 6 6 5 4 3 2 1 1 3 3 3 3 2 2 2 1 1 1 1 1 1 2
16 16 17 19 20 21 23 24 25 26 26 24 22 21 20 20 21 21 19 17 17 16 16 15 16 15 14 13 13 13 12 11 10 10 9 9 7 6 6 7 8 8 7 7 6 5 3 3 2 2 2 1 0 1 1 2 1 1 1 1 1 1 3
16 17 18 19 20 21 22 23 24 26 28 29 27 24 21 21 22 22 21 20 19 17 17 17 18 17 16 15 14 13 13 12 12 11 11 10 8 6 6 8 9 10 9 9 8 7 5 4 3 2 2 2 1 1 2 1 1 0 0 1 1 2 3
17 17 18 19 21 22 22 22 24 25 27 31 30 26 23 23 24 23 23 23 22 20 19 18 19 19 18 17 16 15 14 14 13 13 12 10 9 8 8 8 9 10 11 11 10 9 7 6 5 4 3 3 3 3 2 2 2 2 1 1 2 3 4

ECMWFFLT1_850_spd_246.txt.gz
Wind_Speed
4 5 6 6 6 6 7 6 6 7 7 7 8 8 7 6 4 3 3 3 4 4 5 4 4 5 5 5 5 4 4 4 4 3 3 3 2 2 2 2 3 3 4 3 4 3 5 9 8 6 5 4 3 5 8 8 7 6 6 7 7 7 8
6 6 5 5 6 6 6 7 6 5 6 6 7 7 7 7 5 4 3 3 3 4 4 4 4 5 5 6 6 5 5 4 3 3 3 3 3 3 2 3 3 2 3 3 2 3 4 8 8 6 6 5 4 6 7 8 9 8 8 7 6 7 7
6 6 4 4 5 4 4 5 6 5 5 5 6 6 7 6 4 3 3 2 3 3 4 4 4 5 5 5 6 6 6 4 3 3 3 3 3 3 4 3 3 3 3 3 2 3 4 6 8 7 6 6 6 8 9 11 11 10 9 7 6 6 7
5 5 4 4 4 3 2 3 5 4 3 4 5 5 6 4 2 2 1 1 2 2 3 3 3 4 4 4 5 5 5 5 4 3 3 3 3 4 4 4 3 3 2 3 3 3 3 3 8 10 9 7 7 9 11 12 10 10 9 7 7 8 8
5 4 3 2 2 2 1 1 3 3 3 4 4 4 5 4 2 1 1 1 1 2 2 2 2 2 2 3 5 5 4 4 3 2 2 2 2 3 3 3 3 3 2 3 3 3 3 3 7 11 11 9 9 10 11 11 10 11 10 9 10 10 10
4 4 1 1 1 0 0 1 1 2 2 3 3 3 4 4 2 2 1 0 1 2 2 1 1 2 2 2 4 5 4 4 2 3 3 2 2 2 2 2 2 3 3 3 3 2 1 3 8 11 11 8 10 11 10 10 11 11 11 10 11 11 11
5 4 2 2 2 1 1 2 1 1 1 2 3 4 4 3 2 2 1 1 1 1 1 1 1 2 2 2 3 4 5 4 3 3 3 2 2 2 1 1 2 3 3 3 4 2 0 3 8 12 11 9 10 10 9 9 8 8 9 10 10 9 10
5 4 3 4 4 2 2 3 2 2 2 2 4 5 4 2 1 1 1 1 0 1 0 1 1 2 3 2 2 3 4 4 3 3 2 2 2 2 2 2 2 3 4 4 4 2 1 2 5 9 10 11 12 10 9 8 7 7 8 9 9 8 8
7 5 5 5 4 3 3 3 3 3 2 3 4 5 3 1 1 1 1 0 1 1 1 1 1 2 3 2 1 2 3 2 3 3 2 2 1 2 2 2 2 2 3 4 3 2 1 2 4 6 8 10 11 10 10 9 7 7 7 8 9 8 7
8 7 6 5 5 4 3 3 3 3 3 3 4 4 2 1 1 1 1 0 1 1 1 1 1 2 2 2 1 1 1 1 2 2 2 2 2 2 1 1 2 1 2 4 3 2 1 1 2 5 7 7 7 9 11 10 8 7 6 7 7 7 6
8 8 8 6 5 5 4 4 3 3 4 4 4 4 1 1 2 1 1 0 1 0 0 0 2 2 2 2 1 1 2 1 2 1 2 3 3 3 2 2 2 2 2 4 3 2 1 2 2 3 4 4 4 6 8 11 9 6 6 6 6 6 6
8 8 8 7 5 5 4 4 4 4 4 3 4 3 1 2 2 2 2 1 1 1 1 1 2 3 2 1 0 1 2 2 2 1 1 2 3 4 3 3 3 2 2 3 3 2 2 2 3 3 3 4 6 6 6 9 9 7 6 6 5 6 7
8 8 9 8 6 5 5 5 6 5 4 3 3 2 1 3 3 3 3 2 2 2 1 2 2 2 2 1 2 2 3 2 1 1 0 1 2 4 4 3 2 3 2 2 1 2 2 1 3 4 4 5 6 6 6 7 9 9 7 5 5 8 7
8 8 9 8 7 6 5 6 8 7 5 3 2 1 2 4 5 4 4 3 3 2 1 2 2 2 2 1 2 3 3 3 2 1 0 0 1 2 3 3 1 2 2 1 1 1 1 1 2 3 4 4 4 5 6 7 9 9 8 7 8 8 7
9 8 8 9 9 6 5 8 11 9 6 4 2 1 4 6 6 6 5 4 4 2 1 1 1 1 1 1 1 2 3 3 3 2 2 1 1 1 2 3 1 1 0 1 1 1 1 2 1 2 4 4 4 5 6 7 8 9 9 9 9 8 7
13 12 11 11 11 10 9 12 13 10 8 5 2 2 5 7 7 7 7 5 4 3 2 2 1 1 0 1 1 2 3 3 3 3 2 2 1 1 2 2 1 0 1 1 0 1 2 3 3 2 3 3 4 5 6 6 6 8 9 10 9 8 7
18 16 16 15 15 15 13 14 14 12 9 7 4 3 5 6 8 8 7 6 5 4 3 2 1 1 0 1 1 2 2 2 3 3 3 3 3 3 3 2 1 2 3 3 3 2 2 4 4 4 4 4 4 5 5 5 5 7 9 9 9 8 6
18 17 18 17 17 16 15 15 15 13 11 8 5 4 4 6 9 8 7 7 6 5 4 2 1 1 0 1 2 2 3 3 3 4 4 4 4 4 4 4 3 4 5 4 4 5 6 6 6 5 6 6 5 6 5 5 5 7 9 10 10 9 8
19 17 16 15 15 16 15 16 16 15 13 9 6 4 5 6 8 8 7 7 7 6 5 3 1 0 1 2 2 3 3 3 4 5 5 5 5 5 5 5 4 5 6 6 7 8 9 9 8 7 8 7 7 7 6 6 6 7 9 10 10 9 8
17 17 16 14 13 14 15 17 17 16 14 10 7 5 5 7 8 9 9 9 8 7 6 4 2 1 2 2 3 3 3 3 3 4 5 5 5 5 5 5 5 5 6 7 9 11 11 11 10 9 10 9 8 7 6 6 6 7 8 9 9 9 8
15 16 16 14 13 14 16 18 18 17 15 12 8 6 7 8 8 10 11 10 9 8 6 5 3 3 3 3 3 3 3 3 3 4 4 4 4 4 4 4 5 5 5 6 8 10 11 11 9 8 8 7 6 6 6 6 6 7 8 9 8 8 8
13 15 16 15 15 16 17 18 18 18 16 13 10 7 8 8 8 10 11 11 10 8 6 5 5 5 4 4 3 3 4 4 4 4 4 4 4 4 4 4 5 5 5 6 7 8 9 10 9 8 7 6 5 5 5 6 6 7 7 8 8 8 8
12 15 17 17 16 17 18 19 19 19 17 15 12 9 8 8 9 10 10 10 9 8 6 6 6 6 5 4 4 3 3 4 5 4 4 4 4 3 4 4 5 5 6 6 7 7 7 8 8 7 7 7 6 5 5 5 6 6 7 7 7 8 8
12 15 18 18 17 17 18 20 20 19 18 17 14 11 8 8 9 10 11 11 9 8 7 7 7 7 6 5 4 3 3 4 5 5 5 4 4 4 4 5 5 5 6 6 7 7 7 7 7 6 6 7 7 7 7 6 5 5 5 6 6 7 7
12 14 16 17 17 16 17 20 22 20 19 18 16 13 10 8 8 10 11 11 10 9 8 7 7 7 7 5 4 3 3 4 5 5 6 5 5 4 4 5 5 5 6 6 6 7 7 7 7 7 6 6 6 7 8 8 7 6 5 5 6 7 6
11 13 15 16 17 17 19 22 22 20 20 19 17 15 12 10 9 10 11 12 11 10 9 8 8 8 7 6 4 4 4 4 5 5 6 6 5 5 5 5 5 5 6 6 6 6 7 7 7 6 6 5 5 5 6 6 7 7 7 6 5 6 7
12 13 15 16 17 18 21 23 22 20 20 20 18 16 15 13 10 10 11 12 12 11 10 9 8 9 8 7 5 5 4 5 5 5 6 6 6 6 6 5 6 6 6 5 5 6 6 6 6 6 5 5 5 5 5 5 6 7 8 7 7 8 10
12 14 15 16 18 19 20 22 22 21 20 19 18 17 16 14 12 10 11 12 13 13 11 10 9 9 9 8 6 6 5 5 5 6 6 6 5 5 5 5 6 6 6 5 5 6 6 6 6 5 5 5 5 5 5 5 6 6 7 8 9 10 13
12 13 14 15 17 19 21 22 22 21 21 19 18 18 18 16 14 13 12 12 14 14 13 11 11 10 10 9 8 7 6 6 6 6 6 6 5 5 5 5 5 5 5 5 5 5 6 6 6 6 6 6 6 6 5 5 6 6 6 7 8 9 11
12 12 12 12 13 16 19 22 23 23 22 20 19 18 18 18 17 15 14 13 14 15 15 13 12 11 11 10 9 9 8 7 7 7 7 6 5 5 5 5 5 5 5 5 6 6 6 7 7 7 7 7 6 6 6 5 5 6 6 7 7 8 9
12 12 11 11 13 16 18 20 22 22 21 19 18 18 18 18 19 18 17 16 14 15 16 15 13 13 12 11 11 10 9 9 9 8 8 7 6 6 5 5 6 6 5 6 6 6 7 8 8 8 8 8 7 7 6 6 6 6 7 7 8 8 9
15 12 10 10 13 17 19 19 18 18 19 21 20 19 20 21 21 21 20 18 16 16 17 17 16 15 13 13 13 12 11 11 11 10 9 8 7 7 6 6 7 6 6 6 6 7 8 9 10 10 8 7 7 8 8 8 7 7 7 7 8 8 9
22 18 12 11 12 14 16 19 19 17 18 22 22 22 23 23 23 23 22 21 19 17 18 19 18 17 15 14 14 14 13 13 13 11 11 9 8 8 7 7 7 7 6 6 6 7 8 10 11 11 9 6 7 8 8 8 8 7 7 7 7 8 9
24 23 20 15 13 13 14 15 17 18 19 21 23 24 25 25 25 24 23 23 22 20 20 20 20 19 18 16 16 15 15 15 14 13 12 11 10 9 9 8 8 8 7 7 6 7 8 9 11 12 11 9 9 10 9 7 7 7 7 7 7 7 8
25 26 24 22 17 13 14 13 12 15 19 22 24 25 26 27 26 25 24 25 24 23 23 22 20 20 21 19 17 17 16 16 15 14 14 12 11 10 10 9 9 9 8 8 7 7 8 9 11 12 12 11 10 9 8 7 6 6 6 6 6 6 6
27 27 26 25 23 15 13 13 12 13 19 24 26 26 26 25 26 27 27 26 25 25 25 24 22 21 22 21 20 18 17 17 17 16 15 14 13 12 11 11 11 10 9 9 9 8 8 8 9 10 11 10 9 9 8 6 5 6 5 5 6 6 6
26 27 26 26 26 20 13 13 14 13 17 24 26 25 23 20 22 27 29 28 26 25 25 26 24 22 22 22 22 20 18 18 18 18 17 15 13 13 13 14 12 10 10 10 10 9 9 9 9 10 10 10 9 9 8 6 5 5 5 5 6 7 7

ECMWFFLT1_850_spd_252.txt.gz
Wind_Speed
8 7 5 3 1 1 3 3 1 5 9 8 7 3 2 4 6 3 3 5 2 1 3 6 7 7 7 8 9 9 7 7 9 8 7 8 9 9 8 7 7 5 3 3 2 3 5 7 6 5 5 5 7 9 7 6 8 9 8 6 4 2 2
9 6 3 2 1 1 1 1 2 3 6 7 7 5 2 2 2 2 2 6 5 2 1 4 5 6 7 7 9 11 9 6 7 7 6 7 8 9 10 8 8 7 5 5 4 0 4 6 7 6 5 6 8 10 9 7 7 7 7 6 2 3 4
8 6 5 6 5 3 2 3 2 1 3 6 6 5 5 4 2 1 1 3 5 3 1 3 3 4 5 5 6 9 10 8 6 5 6 7 7 7 9 9 8 8 6 5 6 3 1 4 6 8 8 8 9 10 9 8 7 8 7 5 2 3 6
9 9 10 10 6 4 4 4 4 2 3 6 7 6 7 6 3 1 2 2 4 4 2 2 6 5 3 5 5 6 8 10 7 6 8 8 7 6 6 8 8 8 7 6 6 5 2 4 6 9 10 9 9 9 8 8 7 7 6 4 2 3 6
11 11 12 10 8 6 6 5 5 2 3 6 6 6 8 7 3 1 2 3 5 2 2 2 5 4 3 3 3 4 7 9 6 7 9 9 7 6 5 6 7 6 6 7 6 4 1 2 5 10 12 11 10 9 9 9 9 6 6 7 7 7 7
14 13 11 11 10 10 9 9 7 4 4 7 6 6 7 5 4 3 1 3 2 2 2 3 3 3 5 4 1 4 6 6 6 6 7 9 8 7 5 4 5 5 5 6 7 4 0 2 5 12 14 11 8 9 10 9 8 8 7 8 7 5 5
15 15 13 12 12 12 12 12 10 7 7 8 7 6 5 2 3 3 1 1 0 1 3 5 3 2 6 6 1 3 6 3 3 3 4 7 8 6 5 4 4 5 5 6 7 5 1 2 5 11 12 10 7 8 9 7 7 8 8 6 4 2 3
16 16 15 14 14 15 13 12 12 10 9 8 7 6 4 1 3 3 1 1 1 3 2 4 4 0 5 8 2 2 5 2 3 3 1 4 7 6 7 8 6 5 5 5 5 4 1 2 4 8 9 10 11 9 8 8 9 9 8 6 3 2 4
17 16 16 15 17 17 15 14 13 12 10 9 7 6 3 2 3 2 1 2 2 2 2 3 3 2 6 8 3 1 3 1 2 5 2 1 4 5 6 8 6 5 4 3 4 4 2 1 4 7 8 9 12 11 10 9 8 8 6 5 4 3 3
19 18 17 17 18 18 17 15 15 14 11 8 7 5 2 2 3 1 3 4 3 2 3 2 2 4 7 4 2 2 3 1 1 5 3 2 2 3 3 5 5 4 4 4 4 4 3 2 2 6 9 8 10 13 12 10 8 7 6 5 5 5 2
20 20 19 19 19 20 19 17 17 16 12 9 7 6 3 2 2 2 5 5 3 2 3 4 5 8 6 2 1 2 4 1 3 3 4 0 2 3 2 4 4 3 2 4 5 3 3 1 1 4 8 7 8 12 12 11 11 9 7 6 5 5 1
22 22 21 21 21 21 19 18 18 17 14 10 8 6 4 2 2 3 5 5 3 2 3 5 7 7 5 4 4 2 4 3 3 1 5 4 2 3 1 3 3 3 2 5 4 3 2 0 2 3 7 7 8 9 9 11 12 8 7 8 6 3 3
23 23 22 22 22 21 19 17 17 17 15 11 8 7 5 2 3 4 5 5 4 3 5 6 8 6 4 4 3 6 4 4 3 1 4 6 3 3 3 3 5 6 1 5 2 2 3 2 2 2 5 6 7 8 8 10 9 7 8 8 4 5 6
25 24 23 22 22 22 19 17 17 17 16 12 8 7 5 4 5 5 6 6 4 5 5 6 8 6 2 4 4 5 6 5 4 3 5 5 4 1 4 3 3 7 4 4 5 3 2 4 3 2 3 5 6 8 9 10 8 9 9 6 5 8 6
25 25 24 23 23 22 19 18 18 18 17 13 10 7 6 5 6 8 7 6 5 6 5 5 10 7 2 5 5 4 5 4 5 5 5 3 2 4 2 5 3 6 4 3 4 6 3 2 3 4 2 4 5 8 9 10 9 8 8 8 9 9 5
25 25 25 23 23 22 19 18 19 19 17 14 11 9 7 7 8 8 8 7 7 7 5 7 11 8 3 5 4 3 5 4 4 4 2 2 0 3 1 2 3 5 2 1 2 2 5 6 2 5 2 1 4 7 7 9 7 4 8 12 9 6 7
23 24 25 24 22 21 19 19 20 19 18 15 12 11 9 9 8 7 8 8 8 7 7 8 10 7 4 5 5 5 5 4 3 3 4 4 5 3 2 2 2 2 1 2 2 1 3 7 3 3 2 1 4 6 5 7 4 3 9 11 7 6 7
21 22 22 23 23 21 18 19 21 20 18 15 13 12 11 10 9 7 8 8 8 8 8 7 7 6 6 6 4 4 5 4 2 3 4 5 5 5 4 3 3 2 3 3 3 3 4 5 3 3 2 1 5 4 4 7 2 1 9 9 6 8 6
20 20 19 20 23 22 20 21 22 20 18 15 13 13 12 11 9 8 7 7 7 8 8 7 6 6 6 7 5 3 5 3 2 3 3 3 3 4 3 3 4 5 5 6 6 7 8 8 5 5 5 4 3 3 6 7 2 2 9 7 8 9 7
18 19 19 19 20 21 20 21 21 19 17 15 14 14 14 12 9 7 8 7 6 7 9 9 8 7 7 7 7 4 4 3 3 4 3 3 4 3 4 5 7 7 7 8 8 7 10 12 9 7 7 7 6 7 9 8 4 6 8 7 8 8 7
16 17 18 18 16 16 19 21 20 18 17 16 15 14 13 12 10 8 9 9 7 8 11 12 10 8 6 7 7 5 4 4 4 4 3 5 4 4 6 8 7 6 7 8 8 7 10 13 10 10 11 9 10 11 9 7 9 9 8 8 8 7 7
17 17 17 17 15 15 17 19 20 19 18 18 16 14 12 12 11 9 9 10 9 10 13 14 12 9 7 8 8 5 5 5 3 3 3 4 4 5 7 8 6 6 7 8 10 9 10 12 11 12 13 11 11 11 8 7 9 8 7 9 9 7 8
18 18 16 15 13 13 14 16 18 19 19 18 16 15 13 12 11 10 9 9 10 12 14 15 13 11 10 10 8 6 6 6 4 5 5 5 6 7 8 6 5 6 6 7 10 10 11 12 12 12 13 12 12 12 10 8 9 8 7 8 8 9 8
21 19 16 14 12 13 13 14 15 16 17 17 15 14 14 12 12 12 10 10 12 14 16 15 12 10 10 11 9 9 8 6 6 7 7 6 6 7 7 5 5 6 6 7 9 11 13 14 12 12 12 12 12 13 12 11 12 11 9 8 9 9 7
25 23 20 16 15 14 13 13 12 12 13 15 15 15 14 12 13 13 12 12 14 16 17 15 11 9 10 10 11 10 9 8 7 7 5 4 4 6 7 5 5 6 5 6 7 10 13 14 14 14 13 13 14 14 14 14 13 13 11 9 8 8 7
27 28 25 22 20 17 14 13 11 10 12 15 16 16 15 14 14 16 16 15 15 17 18 15 11 10 10 10 11 10 9 9 7 6 6 5 6 8 8 6 5 6 4 5 7 9 11 12 14 15 14 14 15 16 16 16 14 15 13 10 10 10 8
27 29 27 26 25 22 18 14 11 9 11 14 15 16 17 17 17 17 19 18 17 18 19 16 12 10 11 11 10 10 11 10 7 7 7 8 10 10 8 7 7 6 4 6 8 8 9 10 10 12 13 14 15 16 17 17 16 16 15 12 12 13 11
28 28 28 27 26 26 23 18 13 11 10 12 13 15 19 20 19 19 20 20 18 19 20 18 13 11 12 12 11 11 13 11 9 9 10 11 12 11 9 8 8 7 6 7 8 7 8 8 7 8 10 10 10 11 14 17 17 17 17 14 13 12 13
28 28 28 28 26 25 25 21 17 14 11 12 13 15 18 20 20 20 21 22 21 21 22 20 15 12 12 13 12 13 14 12 11 11 12 12 11 11 10 9 9 9 7 7 7 7 7 7 6 7 9 8 7 8 10 14 16 17 18 17 14 12 12
27 27 26 27 26 24 24 23 21 19 16 14 14 16 18 20 21 21 22 23 23 23 23 21 18 14 13 14 14 14 15 14 12 12 12 11 9 10 10 9 10 10 7 6 8 8 8 7 7 7 8 7 6 7 8 10 12 14 16 17 17 15 13
26 27 24 24 25 24 23 23 23 23 21 19 16 17 19 21 23 23 23 25 25 25 25 23 20 17 14 15 15 15 15 14 12 12 12 10 9 10 10 8 10 10 6 6 8 9 9 9 8 7 6 6 6 6 6 8 9 10 12 13 14 15 14
27 27 24 22 24 25 24 24 24 24 22 21 21 19 19 21 24 26 25 24 24 25 26 24 22 19 16 15 15 16 16 15 12 12 13 10 9 11 10 8 10 9 5 5 8 9 10 10 10 9 6 4 5 5 5 6 7 8 9 10 10 10 11
26 25 23 23 24 25 24 24 25 25 23 23 25 23 21 21 23 26 26 26 25 25 25 25 24 21 18 16 16 17 17 16 13 14 14 10 9 12 10 8 10 9 6 6 8 9 10 10 10 10 7 4 5 7 5 5 6 6 6 7 7 7 7
25 24 22 23 25 25 24 23 24 25 24 22 25 26 24 22 23 25 27 28 27 26 25 26 25 22 20 18 17 18 19 17 15 14 15 12 10 12 11 8 8 9 8 8 8 9 10 10 11 11 9 9 10 9 5 3 3 2 2 3 3 3 4
24 23 22 23 24 24 23 23 23 22 22 22 22 21 21 23 24 24 26 27 26 26 26 27 26 23 21 20 18 18 19 19 17 15 15 13 11 13 13 9 7 8 8 9 9 9 10 11 11 10 10 11 11 8 4 3 3 3 2 2 2 2 3
24 23 22 21 22 22 22 23 22 20 21 23 21 17 16 19 22 23 23 23 24 25 26 27 27 24 21 21 19 18 19 20 20 19 16 14 12 13 16 14 9 7 8 9 9 9 10 10 10 10 10 11 10 7 6 6 5 5 3 3 2 2 3
23 23 22 21 21 21 21 22 21 19 19 21 21 18 15 15 17 18 18 19 20 21 23 26 27 24 21 19 21 21 19 19 22 22 19 17 15 14 16 18 14 9 8 8 9 10 10 10 9 9 10 10 8 8 9 8 7 7 5 5 5 4 4

ECMWFFLT1_850_spd_258.txt.gz
Wind_Speed
8 9 9 10 12 14 13 11 12 12 12 13 13 12 12 11 10 7 5 4 4 6 7 5 5 6 7 8 8 8 7 5 3 2 3 4 3 2 2 2 3 3 5 8 8 7 8 10 9 6 4 4 2 2 0 4 6 4 5 7 10 11 11
9 10 10 11 13 14 13 11 12 13 13 14 15 15 13 11 11 9 7 7 6 6 7 6 5 4 7 8 8 9 9 6 3 2 1 3 3 2 2 1 2 3 5 7 8 9 9 9 12 10 9 7 6 6 2 3 4 4 5 8 10 11 10
10 11 11 11 13 14 14 12 13 15 16 16 16 17 16 14 14 12 9 9 9 8 8 8 8 8 8 8 8 11 9 4 3 2 0 2 4 4 2 1 2 3 5 7 9 12 11 9 10 11 11 10 9 8 4 3 3 3 5 8 9 9 10
11 11 12 12 13 14 15 15 15 16 17 17 17 18 19 17 16 15 12 10 9 9 10 10 10 10 9 6 7 10 7 3 3 2 1 2 3 4 4 3 3 4 5 5 7 11 13 12 11 13 15 12 9 9 7 3 1 2 4 7 7 8 11
14 14 15 14 14 14 16 16 17 18 18 18 18 20 21 19 17 17 15 12 9 8 9 9 9 9 9 7 7 8 7 3 2 2 1 2 2 4 5 5 4 5 5 5 6 8 12 13 12 16 18 13 10 9 9 7 3 0 3 5 6 8 11
17 18 18 18 16 16 16 16 17 18 18 19 20 21 22 22 18 17 17 15 10 8 7 8 8 8 8 7 5 7 7 5 3 2 2 1 1 2 4 4 5 6 5 5 5 7 10 12 13 16 17 13 12 12 11 8 6 3 1 2 4 7 9
19 20 20 20 19 18 18 19 19 18 18 18 20 22 23 23 20 18 18 16 11 8 7 7 7 6 6 5 4 5 6 5 4 4 3 3 2 3 3 3 4 6 6 5 4 5 8 10 13 16 17 14 13 12 12 11 8 6 4 2 1 6 7
20 20 20 20 20 19 19 20 21 21 21 18 19 22 24 24 22 19 18 17 12 8 8 8 7 5 6 6 5 5 6 6 5 6 6 5 4 3 3 3 3 5 6 6 4 4 5 7 10 15 17 16 15 14 12 12 11 8 6 4 1 3 6
20 20 20 21 21 21 21 21 21 22 22 19 17 19 22 23 22 19 18 18 13 8 8 9 8 7 7 7 6 5 7 8 6 7 8 6 4 4 4 3 3 4 6 6 4 4 4 5 9 14 15 15 16 18 15 14 13 10 8 6 3 2 3
18 19 19 19 20 21 21 22 22 22 22 21 19 18 19 21 22 21 19 18 14 9 9 9 9 9 9 8 8 7 6 8 7 7 8 6 5 5 6 5 5 5 6 6 3 2 4 7 11 14 15 13 13 16 17 17 16 14 11 8 5 5 2
17 18 19 18 18 19 20 20 22 22 22 22 21 19 18 18 20 21 20 19 15 11 10 10 9 10 10 10 10 9 6 8 9 7 6 6 5 7 7 6 6 5 6 5 2 0 3 7 12 15 15 14 15 14 13 15 17 15 12 9 6 6 4
18 18 19 18 18 18 19 19 21 22 21 21 21 21 20 17 17 19 20 20 16 12 11 11 9 9 10 10 11 10 8 10 10 7 7 6 5 7 9 8 6 5 5 5 3 3 3 5 11 15 14 15 18 16 14 13 15 14 12 10 7 4 3
17 17 17 18 18 18 18 19 20 20 21 22 22 22 22 18 17 18 19 19 16 12 11 12 10 11 11 11 9 9 10 10 10 8 8 6 4 7 10 9 7 6 5 5 5 5 4 4 8 12 13 15 17 16 15 15 14 12 11 11 9 5 3
15 14 14 15 16 16 17 18 19 20 20 22 23 23 22 18 16 16 17 18 15 12 11 12 12 13 13 12 9 7 10 11 10 10 9 7 5 7 10 10 8 7 6 7 6 5 5 5 6 9 12 14 16 15 15 16 14 12 12 11 9 6 4
16 14 12 12 13 14 15 16 17 18 18 19 21 22 21 19 17 17 16 17 14 11 11 13 14 14 14 14 12 8 8 10 11 12 12 10 7 7 10 10 9 8 7 9 9 7 7 7 5 7 9 13 15 15 15 15 15 14 13 12 11 7 4
19 17 15 14 13 14 14 15 15 16 16 17 18 19 19 18 18 16 16 16 14 11 12 15 16 16 15 14 13 9 7 7 8 12 13 12 10 10 10 11 12 10 8 10 12 10 8 7 6 6 7 10 12 14 15 14 13 13 12 12 11 8 5
22 20 18 17 15 14 14 14 15 15 15 16 17 18 18 18 16 15 15 15 14 12 14 15 16 17 16 15 13 9 7 6 5 9 12 12 11 10 9 10 12 11 8 10 13 12 10 9 7 6 7 7 8 10 11 11 10 10 10 11 11 8 6
26 24 23 20 18 16 15 14 15 16 16 16 16 17 18 17 16 15 16 15 14 14 16 17 17 17 17 17 13 10 9 7 5 7 11 12 11 10 10 11 10 8 8 11 12 11 11 11 9 7 7 6 5 6 9 9 9 7 6 8 9 9 9
27 26 25 24 22 20 17 15 14 15 15 16 16 16 17 18 18 17 17 17 15 14 16 18 18 17 17 18 16 13 11 9 7 6 9 12 12 12 12 12 10 8 8 11 12 11 10 10 11 9 9 8 6 7 9 10 10 8 6 8 8 8 9
27 26 25 24 23 23 21 18 16 15 15 15 16 16 18 19 19 17 17 19 18 15 16 18 18 17 17 19 18 14 12 9 8 7 8 10 11 12 12 11 10 8 8 11 13 12 9 8 10 11 11 10 9 9 10 11 11 9 8 11 11 8 8
26 27 26 23 22 22 23 22 20 17 16 16 17 18 19 20 20 19 18 19 19 17 16 17 17 17 18 19 19 16 13 10 9 8 9 9 9 10 9 9 8 7 8 10 10 11 10 8 8 10 12 11 11 11 11 11 11 10 10 12 13 10 8
26 27 26 24 23 22 22 23 22 20 19 17 17 18 20 21 22 22 20 20 20 19 17 17 17 17 18 19 18 17 15 11 9 9 9 10 10 9 8 8 7 7 8 9 10 10 11 9 7 7 10 13 13 12 12 13 12 12 12 13 14 12 9
24 25 25 24 23 23 23 23 22 21 21 20 18 17 18 18 20 22 23 22 21 20 19 19 19 18 18 18 17 17 16 13 10 9 9 10 10 9 8 7 7 7 7 9 10 10 11 12 9 7 7 11 14 14 14 14 13 12 13 13 14 12 9
24 25 26 25 24 24 24 23 23 22 21 20 20 19 18 17 17 20 22 22 22 21 20 19 20 20 19 18 17 17 16 13 10 10 9 9 9 9 8 7 7 7 8 8 10 11 12 13 12 10 8 8 11 13 14 14 13 12 13 13 13 11 8
22 24 26 26 25 25 25 24 24 24 23 23 21 20 19 18 16 17 18 19 21 22 20 16 18 20 19 18 18 17 16 14 12 11 10 10 10 10 8 7 5 6 8 9 10 11 12 13 14 14 12 10 9 12 13 13 12 10 10 11 11 10 8
21 22 23 23 23 24 25 25 25 25 25 25 24 23 21 19 16 15 15 14 16 21 21 17 17 20 20 18 18 18 17 15 13 11 11 11 11 11 8 6 3 3 6 9 10 11 12 13 13 14 15 14 13 12 12 12 11 10 10 11 11 10 9
23 23 23 22 22 22 24 26 26 27 26 24 25 26 24 21 17 13 13 13 14 18 21 19 18 20 21 19 19 18 17 15 13 12 12 12 12 11 8 5 3 3 4 6 9 10 11 11 13 14 15 16 16 15 15 14 13 12 12 13 13 12 11
27 24 21 21 21 21 23 25 26 27 26 22 23 27 25 22 18 14 11 12 14 17 20 19 18 20 21 20 19 18 17 16 14 13 13 13 12 11 9 7 6 4 3 4 6 7 9 10 11 13 15 16 16 16 16 16 15 14 13 12 12 11 11
26 22 20 21 21 20 22 24 25 27 24 20 22 26 25 22 18 15 13 10 10 13 17 19 19 20 20 20 19 18 18 17 16 14 14 14 12 11 9 8 8 7 4 3 4 5 7 8 9 10 12 14 16 16 16 16 16 15 15 13 11 10 10
24 22 22 22 22 22 22 23 25 24 21 19 21 24 25 23 19 17 16 15 11 9 11 17 20 19 19 20 20 19 18 18 17 15 15 14 13 11 10 10 9 8 6 4 4 5 6 6 7 7 8 10 12 13 14 15 16 16 16 15 13 11 11
24 23 22 22 23 24 23 23 24 22 17 17 20 23 25 25 22 19 17 16 16 13 9 10 16 19 18 19 20 20 20 19 17 16 15 15 15 12 11 11 10 9 7 6 6 6 6 6 5 5 6 7 9 10 11 13 14 16 17 16 15 13 12
23 22 22 22 23 25 24 22 23 21 16 15 18 20 24 26 24 21 18 16 16 14 12 12 11 13 17 19 21 21 20 20 19 17 15 16 16 14 12 12 11 9 8 7 7 6 5 6 5 4 4 5 7 9 9 10 12 13 15 16 16 16 15
21 21 23 23 24 25 24 22 23 21 17 15 16 18 21 23 22 21 20 20 18 14 12 15 16 12 12 20 24 22 21 21 20 17 16 16 17 16 14 12 10 9 8 7 7 6 5 6 5 4 3 4 5 6 7 9 10 12 14 15 16 17 17
20 22 23 23 23 22 21 21 22 22 19 16 15 16 19 20 18 17 19 22 23 19 16 16 17 17 15 15 23 24 22 22 21 18 16 16 17 16 14 10 8 7 7 7 7 6 5 6 6 4 3 3 4 5 6 7 9 11 12 13 15 16 17
18 20 20 20 19 18 18 19 20 20 19 18 17 17 19 19 17 15 17 20 23 24 22 19 14 15 21 18 14 22 22 21 21 19 17 16 17 16 14 8 5 6 6 5 6 6 5 6 6 5 4 4 5 5 4 5 8 9 10 12 13 14 15
16 16 16 16 16 16 16 17 19 20 20 21 20 18 19 20 18 16 16 18 21 24 24 22 17 12 17 23 14 14 22 24 22 21 19 17 16 16 13 8 5 6 5 2 3 4 5 5 5 5 5 5 5 5 4 4 7 8 9 9 10 12 12
14 13 14 14 16 17 17 17 18 20 21 23 23 21 20 21 21 20 19 20 22 24 24 24 23 16 12 17 19 11 15 24 24 22 20 19 17 16 14 9 7 7 5 2 1 2 3 4 5 5 6 6 6 6 5 5 7 8 9 8 8 9 10